Location: *
(51.0333°S, 178.4667°E)
Time: 06:04:56
(UTC+00:00)

S3M - Pass Details

Date: 15 November 2019
Orbit: 949 x 1004 km, 83.0° (Epoch: 09 December)

Event Time Altitude Azimuth Distance (km) Brightness Sun altitude
Exits shadow 10:50:11 33° 5° (N) 1,580 4.5 -19.2°
Maximum altitude 10:53:10 76° 84° (E) 999 3.9 -19.4°
Drops below altitude 10° 10:59:22 10° 168° (SSE) 2,714 7.3 -19.6°
Sets 11:01:53 0° 169° (SSE) 3,666 8.2 -19.7°
